Location: Fayetteville
(35.0530°N, 78.8790°W)
Time: 20:00:00
(UTC-04:00)

Hubble Space Telescope - Pass Details

Date: 16 June 2019
Orbit: 536 x 540 km, 28.5° (Epoch: 19 July)

Event Time Altitude Azimuth Distance (km) Brightness Sun altitude
Exits shadow 03:16:35 11° 114° (ESE) 1,742 3.4 -25.0°
Drops below altitude 10° 03:16:42 10° 113° (ESE) 1,777 3.5 -25.0°
Sets 03:19:14 0° 99° (E) 2,668 4.6 -24.7°
